Regional Weather Roundup
Issued by NWS Burlington, VT

Current Version | Previous Version | Text Only | Print | Product List | Glossary Off
Versions: 1 2 3 4 5 6 7 8 9 10 11 12 13 14 15 16 17 18 19 20 21 22 23 24 25 26 27 28 29 30 31 32 33 34 35 36 37 38 39 40 41 42 43 44 45 46 47 48 49 50

646
ASUS41 KBTV 290810
RWRBTV
VERMONT REGIONAL WEATHER ROUNDUP
NATIONAL WEATHER SERVICE BURLINGTON VT
400 AM EDT FRI APR 29 2016

NOTE: "FAIR" INDICATES FEW OR NO CLOUDS BELOW 12,000 FEET WITH NO
SIGNIFICANT WEATHER AND/OR OBSTRUCTIONS TO VISIBILITY.

* THESE REPORTS ARE NOT UNDER NWS QUALITY CONTROL AND/OR DO NOT
  REPORT WEATHER SUCH AS PRECIPITATION AND FOG.

VTZ001>019-290900-
_____VERMONT_____


CITY           SKY/WX    TMP DP  RH WIND       PRES   REMARKS
BURLINGTON     FAIR      30  20  66 CALM      30.15R
MONTPELIER     FAIR      25  17  72 CALM      30.17S
MORRISVILLE    FAIR      22  17  81 CALM      30.17S
ST. JOHNSBURY*   N/A     26  19  74 MISG      30.14S
LYNDONVILLE*   FAIR      25  15  65 CALM      30.14S
MIDDLEBURY*    FAIR      31  19  61 CALM      30.13S
RUTLAND*       FAIR      32  21  64 CALM      30.11S
SPRINGFIELD    FAIR      35  15  44 NE5       30.13S WCI  31
HIGHGATE*      FAIR      26  19  76 SE3       30.17R
NEWPORT*       FAIR      23  18  81 CALM      30.15S
BENNINGTON     FAIR      41  19  41 NE5       30.06R
SUTTON*          N/A     25 N/A N/A MISG        N/A

_____LAKE CHAMPLAIN_____


CITY           SKY/WX    TMP DP  RH WIND       PRES   REMARKS
COLCHESTER RF*   N/A     36  28  75 NW10        N/A  WCI  28
DIAMOND ISL*     N/A     37  25  60 N13         N/A  WCI  29

$$

NYZ007-026>031-035-052-083-087-290900-
_____NORTHERN NEW YORK_____


CITY           SKY/WX    TMP DP  RH WIND       PRES   REMARKS
PLATTSBURGH    CLEAR     26  19  74 CALM      30.16R
SARANAC LAKE   CLEAR     27  13  55 NE3       30.06S
MASSENA        PTCLDY    31  17  56 NE7       30.16R WCI  24
OGDENSBURG*    CLEAR     30  25  80 E5        30.12S WCI  25
POTSDAM*       CLEAR    -15 -20  76 E3        30.12
WATERTOWN      CLOUDY    35  20  54 NE9       30.08R WCI  28
FT DRUM        CLOUDY    33  20  56 NE8       30.06R WCI  27
ALBANY         CLOUDY    39  19  44 N9        30.10R
GLENS FALLS    CLOUDY    39  19  44 N9        30.11R

$$
NHZ002-005-011-290900-
_____NEW HAMPSHIRE_____


CITY           SKY/WX    TMP DP  RH WIND       PRES   REMARKS
LEBANON        MOCLDY    32  19  58 CALM      30.14R
KEENE          MOCLDY    41  30  65 NE5       30.13R
MT WASHINGTON  PTCLDY    19   3  49 W30         N/A  WCI   0
PLYMOUTH       FAIR      28  26  94 CALM      30.15S
WHITEFIELD     CLEAR     28  15  58 N5        30.13S WCI  23

$$

_____REGIONAL QUEBEC LOCATIONS_____


CITY           SKY/WX    TMP DP  RH WIND       PRES   REMARKS
MONTREAL       PTCLDY    32  16  51 NE9       30.18S WCI  24
QUEBEC CITY    CLEAR     25   7  46 N6        30.20S WCI  18
SHERBROOKE     CLEAR     21  16  79 E3        30.16S

_____REGIONAL ONTARIO LOCATIONS_____


CITY           SKY/WX    TMP DP  RH WIND       PRES   REMARKS
OTTAWA         PTCLDY    30  18  59 E10       30.15R WCI  21

______KEY______
VSB  - VISIBILITY IN MILES
WCI  - WIND CHILL INDEX
HX   - HEAT INDEX
$$
NNNN




USA.gov is the U.S. government's official web portal to all federal, state and local government web resources and services.